Meteo Giornale » Osservazioni meteo Italia » Firenze-Peretola

ore: 23:20 - Osservazioni Meteo Firenze-Peretola
Lat. 43° 48' N Lon. 11° 12' E Alt. 40 metri s.l.m.

sereno Europe/Rome

12 °C

Sereno

Temp. 24 Ore

7 °C

23 °C

Nord

5.5 Km/h

Dew point 8 °C

Umidità 76 %

Visibilità  10 Km

Il sole sorge alle ore 07:32

Il sole tramonta alle ore 18:27

Data e Ora Cielo e Fenomeni T °C DP °C Um. % Pres. hPa Vis. km Vento km/h
Oggi h: 23:20 sereno Sereno 12 8 76 1019 10 N 5.5
Oggi h: 22:50 sereno Sereno 12 9 81 1019 10 E 7.4
Oggi h: 21:50 sereno Sereno 13 9 76 1019 10 E 7.4
Oggi h: 21:20 sereno Sereno 12 8 76 1018 10 N 5.5
Oggi h: 20:50 sereno Sereno 13 9 76 1018 10 N 3.7
Oggi h: 20:20 sereno Sereno 14 9 71 1018 10 N 5.5
Oggi h: 19:50 sereno Sereno 14 9 71 1018 10 N 1.8
Oggi h: 19:20 sereno Sereno 16 11 72 1018 10 N 0
Oggi h: 18:50 sereno Sereno 18 9 55 1017 10 N 3.7
Oggi h: 18:20 sereno Sereno 20 9 49 1017 10 N 5.5
Oggi h: 17:50 sereno Sereno 21 10 49 1017 10 O/NO 7.4
Oggi h: 17:20 sereno Sereno 23 9 40 1017 10 N 5.5
Oggi h: 16:50 sereno Sereno 23 9 40 1018 10 N 5.5
Oggi h: 16:20 sereno Sereno 23 9 40 1018 10 N 5.5
Oggi h: 15:50 sereno Sereno 23 8 38 1018 10 NO 7.4
Oggi h: 15:20 sereno Sereno 23 9 40 1018 10 O/NO 7.4
Oggi h: 14:50 sereno Sereno 23 8 38 1019 10 N 5.5
Oggi h: 14:20 sereno Sereno 22 9 43 1019 10 N 5.5
Oggi h: 13:50 sereno Sereno 22 10 46 1019 10 N 3.7
Oggi h: 13:20 sereno Sereno 21 11 52 1020 10 N 3.7
Oggi h: 12:50 sereno Sereno 20 11 56 1020 10 N 3.7
Oggi h: 12:20 sereno Sereno 18 10 59 1021 10 N 5.5
Oggi h: 11:50 sereno Sereno 17 11 67 1021 10 N 3.7
Oggi h: 11:20 sereno Sereno 16 10 67 1021 10 N 3.7
Oggi h: 10:50 sereno Sereno 16 10 67 1021 10 N 1.8
Oggi h: 10:20 sereno Sereno 14 10 76 1021 10 N 1.8
Oggi h: 09:50 sereno Sereno 13 11 87 1022 10 N 1.8
Oggi h: 09:20 sereno Sereno 12 11 93 1022 10 N 0
Oggi h: 08:50 sereno Sereno 10 10 100 1022 10 N 0
Oggi h: 08:20 sereno Sereno 8 8 100 1022 10 N 0
Oggi h: 07:50 nebbia Nebbia a Strati 8 8 100 1021 10 N 1.8
Oggi h: 07:20 nebbia Nebbia a Strati 8 8 100 1021 10 N 0
Oggi h: 06:50 sereno Sereno 8 7 93 1021 10 N 0
Oggi h: 06:20 sereno Sereno 8 8 100 1021 10 N 0
Oggi h: 05:50 sereno Sereno 7 6 93 1022 10 N 0
Oggi h: 05:20 sereno Sereno 9 8 93 1022 10 N 1.8
Oggi h: 04:50 sereno Sereno 9 9 100 1022 10 N 1.8
Oggi h: 04:20 sereno Sereno 9 8 93 1022 10 N 1.8
Oggi h: 03:50 sereno Sereno 9 8 93 1022 10 N 1.8
Oggi h: 03:20 sereno Sereno 9 8 93 1022 10 N 1.8
Oggi h: 02:50 sereno Sereno 9 8 93 1022 10 N 0
Oggi h: 02:20 sereno Sereno 9 9 100 1022 10 N 5.5
Oggi h: 01:50 sereno Sereno 10 9 93 1022 10 N 1.8
Oggi h: 01:20 sereno Sereno 10 9 93 1022 10 N 3.7
Oggi h: 00:50 sereno Sereno 11 9 87 1023 10 N 0
Oggi h: 00:20 sereno Sereno 11 9 87 1023 10 N 1.8
Ieri h: 23:50 sereno Sereno 11 8 81 1023 10 N 5.5